TimeCDT,TemperatureF,Dew PointF,Humidity,Sea Level PressureIn,VisibilityMPH,Wind Direction,Wind SpeedMPH,Gust SpeedMPH,PrecipitationIn,Events,Conditions,WindDirDegrees,DateUTC
12:15 AM,39.2,29.7,69,29.57,10.0,West,13.8,27.6,N/A,,Overcast,280,2013-03-25 05:15:00
12:35 AM,37.4,30.7,77,29.58,7.0,SW,8.1,23.0,N/A,Rain,Light Rain,220,2013-03-25 05:35:00
12:55 AM,37.8,28.6,69,29.58,10.0,WSW,6.9,-,N/A,,Overcast,240,2013-03-25 05:55:00
1:15 AM,37.8,28.0,68,29.58,10.0,West,9.2,21.9,N/A,,Overcast,270,2013-03-25 06:15:00
1:35 AM,36.7,29.1,74,29.60,10.0,WNW,12.7,23.0,N/A,,Overcast,290,2013-03-25 06:35:00
1:55 AM,36.1,27.5,71,29.60,10.0,WSW,8.1,20.7,N/A,,Overcast,250,2013-03-25 06:55:00
2:15 AM,36.0,27.0,70,29.61,10.0,SW,6.9,18.4,N/A,Snow,Light Snow,220,2013-03-25 07:15:00
2:35 AM,34.9,27.3,74,29.62,7.0,West,11.5,24.2,N/A,Snow,Light Snow,260,2013-03-25 07:35:00
2:55 AM,34.7,26.8,73,29.62,7.0,WSW,8.1,17.3,N/A,Snow,Light Snow,240,2013-03-25 07:55:00
3:15 AM,34.7,25.2,68,29.62,10.0,WSW,11.5,21.9,N/A,,Overcast,250,2013-03-25 08:15:00
3:35 AM,34.2,25.7,71,29.62,10.0,WSW,5.8,-,N/A,Snow,Light Snow,240,2013-03-25 08:35:00
3:55 AM,33.8,26.1,73,29.62,5.0,WSW,9.2,-,N/A,Snow,Light Snow,250,2013-03-25 08:55:00
4:15 AM,33.3,27.1,78,29.62,3.0,WSW,6.9,-,N/A,Snow,Light Snow,250,2013-03-25 09:15:00
4:35 AM,32.9,27.1,79,29.62,4.0,SW,6.9,-,N/A,Snow,Light Snow,230,2013-03-25 09:35:00
4:55 AM,32.9,26.2,76,29.63,4.0,SW,8.1,17.3,N/A,Snow,Light Snow,230,2013-03-25 09:55:00
5:15 AM,32.7,26.8,79,29.63,3.0,WSW,10.4,-,N/A,Snow,Light Snow,250,2013-03-25 10:15:00
5:35 AM,32.4,26.6,79,29.64,3.0,WSW,4.6,-,N/A,Snow,Light Snow,250,2013-03-25 10:35:00
5:55 AM,32.7,26.2,77,29.64,5.0,SW,4.6,-,N/A,Snow,Light Snow,230,2013-03-25 10:55:00
6:15 AM,32.4,26.4,79,29.64,5.0,West,11.5,23.0,N/A,Snow,Light Snow,260,2013-03-25 11:15:00
6:35 AM,32.0,27.0,82,29.65,2.5,West,8.1,-,N/A,Snow,Light Snow,260,2013-03-25 11:35:00
6:55 AM,31.6,27.9,86,29.65,2.0,West,4.6,-,N/A,Snow,Light Snow,280,2013-03-25 11:55:00
7:15 AM,32.0,27.1,82,29.65,1.5,SW,5.8,-,N/A,Snow,Light Snow,230,2013-03-25 12:15:00
7:35 AM,32.0,27.3,83,29.66,1.5,WSW,5.8,-,N/A,Snow,Light Snow,250,2013-03-25 12:35:00
7:55 AM,32.0,27.1,82,29.66,1.2,WSW,3.5,-,N/A,Snow,Light Snow,250,2013-03-25 12:55:00
8:15 AM,32.0,27.0,82,29.67,1.8,WSW,4.6,-,N/A,Snow,Light Snow,240,2013-03-25 13:15:00
8:35 AM,32.9,25.5,74,29.67,7.0,West,12.7,16.1,N/A,,Overcast,260,2013-03-25 13:35:00
8:55 AM,33.8,25.3,71,29.68,5.0,West,11.5,17.3,N/A,,Haze,270,2013-03-25 13:55:00
9:15 AM,34.0,25.5,71,29.69,7.0,West,8.1,19.6,N/A,Snow,Light Snow,260,2013-03-25 14:15:00
9:35 AM,33.1,27.3,79,29.70,1.8,West,6.9,-,N/A,Snow,Light Snow,270,2013-03-25 14:35:00
9:55 AM,32.5,28.2,84,29.71,1.0,SW,4.6,-,N/A,Snow,Light Snow,230,2013-03-25 14:55:00
10:15 AM,32.9,28.8,85,29.72,1.0,West,8.1,17.3,N/A,Snow,Light Snow,260,2013-03-25 15:15:00
10:35 AM,32.9,29.1,86,29.73,1.2,SW,5.8,-,N/A,Snow,Light Snow,230,2013-03-25 15:35:00
10:55 AM,33.6,28.4,81,29.73,2.5,SW,5.8,-,N/A,Snow,Light Snow,230,2013-03-25 15:55:00
11:15 AM,33.4,28.4,82,29.75,1.8,West,6.9,17.3,N/A,Snow,Light Snow,270,2013-03-25 16:15:00
11:35 AM,34.0,29.1,82,29.75,2.0,SW,8.1,-,N/A,Snow,Light Snow,230,2013-03-25 16:35:00
11:55 AM,34.0,28.2,79,29.75,2.5,WSW,9.2,-,N/A,Snow,Light Snow,240,2013-03-25 16:55:00
12:15 PM,34.3,28.8,80,29.76,2.5,West,5.8,18.4,N/A,Snow,Light Snow,280,2013-03-25 17:15:00
12:35 PM,36.3,27.0,69,29.75,10.0,WNW,11.5,21.9,N/A,,Overcast,290,2013-03-25 17:35:00
12:55 PM,32.4,29.8,90,29.77,0.5,West,5.8,16.1,N/A,Snow,Snow,280,2013-03-25 17:55:00
1:15 PM,34.5,29.7,82,29.76,4.0,NW,5.8,-,N/A,Snow,Light Snow,320,2013-03-25 18:15:00
1:35 PM,36.7,29.3,75,29.76,7.0,West,13.8,21.9,N/A,Snow,Light Snow,270,2013-03-25 18:35:00
1:55 PM,34.5,30.4,85,29.77,1.5,WNW,9.2,21.9,N/A,Snow,Light Snow,290,2013-03-25 18:55:00
2:15 PM,32.0,31.1,96,29.78,0.2,SW,4.6,-,0.01,Snow,Snow,230,2013-03-25 19:15:00
2:35 PM,32.9,30.0,89,29.78,1.2,West,5.8,-,0.02,Snow,Light Snow,280,2013-03-25 19:35:00
2:55 PM,35.1,29.1,79,29.78,10.0,NW,5.8,-,0.02,Rain,Light Rain,310,2013-03-25 19:55:00
3:15 PM,32.9,30.6,91,29.80,1.0,West,4.6,-,N/A,Snow,Light Snow,280,2013-03-25 20:15:00
3:35 PM,34.7,28.9,79,29.80,7.0,West,8.1,-,N/A,Snow,Light Snow,270,2013-03-25 20:35:00
3:55 PM,36.1,28.0,72,29.81,10.0,NW,15.0,23.0,N/A,,Overcast,310,2013-03-25 20:55:00
4:15 PM,32.0,31.1,96,29.82,0.5,NW,4.6,-,N/A,Snow,Light Snow,310,2013-03-25 21:15:00
4:35 PM,32.7,30.2,90,29.83,1.0,WNW,4.6,-,0.01,Snow,Light Snow,290,2013-03-25 21:35:00
4:55 PM,34.5,28.9,80,29.84,7.0,WNW,11.5,17.3,0.01,Snow,Light Snow,300,2013-03-25 21:55:00
5:15 PM,32.0,30.4,94,29.85,0.5,NW,3.5,-,0.01,Snow,Light Snow,310,2013-03-25 22:15:00
5:35 PM,33.3,27.0,78,29.86,3.0,WNW,9.2,20.7,0.01,Snow,Light Snow,290,2013-03-25 22:35:00
5:55 PM,33.8,27.0,76,29.87,10.0,WNW,10.4,16.1,0.01,Snow,Light Snow,300,2013-03-25 22:55:00
6:15 PM,32.9,27.9,82,29.88,7.0,West,5.8,-,N/A,Snow,Light Snow,270,2013-03-25 23:15:00
6:35 PM,33.3,27.1,78,29.90,7.0,WNW,10.4,17.3,N/A,Snow,Light Snow,290,2013-03-25 23:35:00
6:55 PM,33.1,26.8,78,29.91,10.0,WNW,11.5,18.4,N/A,,Overcast,290,2013-03-25 23:55:00
7:15 PM,33.3,26.6,77,29.92,10.0,WNW,8.1,-,N/A,,Overcast,290,2013-03-26 00:15:00
7:35 PM,33.3,26.6,77,29.93,10.0,WNW,5.8,-,N/A,,Overcast,290,2013-03-26 00:35:00
7:55 PM,33.3,26.8,77,29.93,10.0,West,4.6,-,N/A,,Overcast,280,2013-03-26 00:55:00
8:15 PM,33.3,26.8,77,29.94,10.0,West,9.2,-,N/A,,Overcast,270,2013-03-26 01:15:00
8:35 PM,32.9,26.8,78,29.95,4.0,WNW,9.2,17.3,N/A,Snow,Light Snow,300,2013-03-26 01:35:00
8:55 PM,32.9,26.2,76,29.95,7.0,WNW,13.8,20.7,N/A,Snow,Light Snow,290,2013-03-26 01:55:00
9:15 PM,32.5,26.4,78,29.96,7.0,WNW,9.2,-,N/A,Snow,Light Snow,290,2013-03-26 02:15:00
9:35 PM,32.4,26.6,79,29.96,7.0,West,10.4,-,N/A,Snow,Light Snow,280,2013-03-26 02:35:00
9:55 PM,32.5,26.6,79,29.97,7.0,WNW,5.8,-,N/A,Snow,Light Snow,290,2013-03-26 02:55:00
10:15 PM,32.0,27.1,82,29.97,3.0,WNW,5.8,-,N/A,Snow,Light Snow,290,2013-03-26 03:15:00
10:35 PM,32.0,27.3,83,29.97,4.0,WNW,5.8,-,N/A,Snow,Light Snow,290,2013-03-26 03:35:00
10:55 PM,32.0,27.1,82,29.98,4.0,WNW,6.9,10.4,N/A,Snow,Light Snow,300,2013-03-26 03:55:00
11:15 PM,32.0,27.0,82,29.98,7.0,WNW,6.9,-,N/A,Snow,Light Snow,290,2013-03-26 04:15:00
11:35 PM,32.0,27.0,82,29.98,5.0,WNW,9.2,-,N/A,Snow,Light Snow,290,2013-03-26 04:35:00
11:55 PM,32.0,27.3,83,29.98,3.0,WNW,6.9,-,N/A,Snow,Light Snow,290,2013-03-26 04:55:00